WAH244 KSFO-KLAX

Flight info

Callsign WAH244
Flight time N/A
Altitude 39000
Route WESLA5 SUSEY EBAYE BURGL IRNMN2
Aircraft B748/H-SDE3FGHIM1M2RWXY/LB1

Departure

Time N/A
Airport San Francisco International Airport (KSFO)

Arrival

Time 2026-04-25 22:40
Airport Los Angeles International Airport (KLAX)
Time Latitude Longitude Altitude Speed Heading
2026-04-25 22:21 34.50478 -119.11473 21441 ft 378 kts 151°
2026-04-25 22:21 34.48371 -119.09604 20911 ft 376 kts 151°
2026-04-25 22:22 34.46261 -119.07732 20371 ft 373 kts 151°
2026-04-25 22:22 34.44196 -119.05901 19862 ft 370 kts 151°
2026-04-25 22:22 34.42140 -119.04106 19251 ft 370 kts 151°
2026-04-25 22:22 34.40057 -119.02309 18553 ft 362 kts 151°
2026-04-25 22:23 34.38029 -119.00557 18045 ft 358 kts 151°
2026-04-25 22:23 34.36020 -118.98825 17447 ft 359 kts 150°
2026-04-25 22:23 34.33978 -118.97050 16918 ft 357 kts 149°
2026-04-25 22:23 34.32037 -118.95291 16701 ft 347 kts 149°
2026-04-25 22:24 34.30108 -118.93533 16463 ft 344 kts 149°
2026-04-25 22:24 34.28192 -118.91796 16253 ft 346 kts 149°
2026-04-25 22:24 34.26281 -118.90060 16027 ft 349 kts 149°
2026-04-25 22:24 34.24321 -118.88271 15420 ft 357 kts 148°
2026-04-25 22:25 34.22327 -118.86447 14702 ft 359 kts 148°
2026-04-25 22:25 34.20381 -118.84654 13899 ft 347 kts 148°
2026-04-25 22:25 34.18518 -118.82931 13349 ft 331 kts 148°
2026-04-25 22:25 34.16748 -118.81278 12918 ft 315 kts 145°
2026-04-25 22:26 34.15140 -118.79572 12585 ft 300 kts 143°
2026-04-25 22:26 34.13627 -118.77917 12376 ft 292 kts 143°
2026-04-25 22:26 34.12144 -118.76308 12074 ft 289 kts 143°
2026-04-25 22:26 34.10661 -118.74708 11789 ft 287 kts 143°
2026-04-25 22:27 34.09203 -118.73048 11486 ft 288 kts 140°
2026-04-25 22:27 34.07859 -118.71284 11188 ft 289 kts 135°
2026-04-25 22:27 34.06704 -118.69278 10858 ft 294 kts 120°
2026-04-25 22:27 34.05831 -118.67078 10564 ft 292 kts 121°
2026-04-25 22:28 34.04871 -118.64948 10249 ft 290 kts 123°
2026-04-25 22:28 34.03892 -118.62830 9933 ft 288 kts 122°
2026-04-25 22:28 34.03016 -118.60654 9629 ft 287 kts 117°
2026-04-25 22:28 34.02356 -118.58439 9419 ft 285 kts 107°
2026-04-25 22:29 34.01961 -118.56053 9056 ft 289 kts 99°
2026-04-25 22:29 34.01761 -118.53687 8728 ft 284 kts 97°
2026-04-25 22:29 34.01572 -118.51382 8294 ft 272 kts 98°
2026-04-25 22:30 34.01154 -118.47121 8005 ft 248 kts 99°
2026-04-25 22:30 34.01089 -118.45046 7667 ft 256 kts 82°
2026-04-25 22:30 34.01505 -118.42947 7240 ft 257 kts 76°
2026-04-25 22:30 34.01775 -118.41590 6926 ft 252 kts 78°
2026-04-25 22:31 34.02226 -118.38885 6384 ft 240 kts 79°
2026-04-25 22:31 34.02538 -118.36935 6146 ft 235 kts 79°
2026-04-25 22:31 34.02797 -118.35022 6075 ft 233 kts 83°
2026-04-25 22:31 34.02992 -118.33044 5901 ft 241 kts 84°
2026-04-25 22:32 34.03193 -118.31103 5544 ft 238 kts 83°
2026-04-25 22:32 34.03401 -118.29151 5318 ft 235 kts 85°
2026-04-25 22:32 34.03366 -118.27263 5457 ft 231 kts 86°
2026-04-25 22:32 34.03733 -118.25375 5449 ft 239 kts 82°
2026-04-25 22:33 34.03985 -118.23422 5165 ft 235 kts 74°
2026-04-25 22:33 34.04496 -118.21626 5028 ft 231 kts 71°
2026-04-25 22:33 34.05025 -118.19801 4815 ft 232 kts 71°
2026-04-25 22:33 34.05568 -118.17948 4668 ft 237 kts 71°
2026-04-25 22:34 34.05752 -118.16026 4316 ft 234 kts 102°
2026-04-25 22:34 34.04946 -118.14413 3997 ft 224 kts 143°
2026-04-25 22:34 34.03550 -118.13896 3949 ft 211 kts 185°
2026-04-25 22:34 34.02071 -118.14177 4022 ft 217 kts 191°
2026-04-25 22:35 34.00574 -118.14500 3868 ft 220 kts 194°
2026-04-25 22:35 33.99319 -118.15466 3592 ft 211 kts 229°
2026-04-25 22:35 33.98399 -118.16836 3458 ft 213 kts 231°
2026-04-25 22:35 33.97560 -118.18279 3231 ft 213 kts 247°
2026-04-25 22:36 33.97299 -118.20012 3069 ft 211 kts 262°
2026-04-25 22:36 33.97119 -118.21688 2855 ft 195 kts 261°
2026-04-25 22:36 33.96957 -118.23248 2612 ft 181 kts 261°
2026-04-25 22:36 33.96809 -118.24681 2378 ft 170 kts 261°
2026-04-25 22:37 33.96673 -118.26040 2155 ft 159 kts 261°
2026-04-25 22:37 33.96536 -118.27318 1969 ft 151 kts 260°
2026-04-25 22:37 33.96401 -118.28551 1979 ft 150 kts 260°
2026-04-25 22:37 33.96275 -118.29822 1817 ft 153 kts 261°
2026-04-25 22:38 33.96150 -118.31078 1615 ft 153 kts 260°
2026-04-25 22:38 33.96020 -118.32330 1416 ft 150 kts 260°
2026-04-25 22:38 33.95891 -118.33559 1222 ft 149 kts 259°
2026-04-25 22:38 33.95768 -118.34782 1034 ft 148 kts 260°
2026-04-25 22:39 33.95644 -118.36002 836 ft 145 kts 260°
2026-04-25 22:39 33.95520 -118.37188 648 ft 144 kts 260°
2026-04-25 22:39 33.95402 -118.38363 464 ft 146 kts 260°
2026-04-25 22:39 33.95266 -118.39579 289 ft 146 kts 259°
2026-04-25 22:40 33.95156 -118.40749 136 ft 133 kts 261°
2026-04-25 22:40 33.95078 -118.41471 134 ft 51 kts 263°
2026-04-25 22:40 33.95038 -118.41865 134 ft 46 kts 264°
2026-04-25 22:40 33.94967 -118.42145 134 ft 23 kts 239°
2026-04-25 22:41 33.94911 -118.42231 134 ft 0 kts 227°
2026-04-25 22:41 33.94909 -118.42234 134 ft 1 kts 227°
2026-04-25 22:41 33.94900 -118.42245 134 ft 2 kts 224°
2026-04-25 22:41 33.94879 -118.42265 134 ft 4 kts 216°
2026-04-25 22:42 33.94844 -118.42286 134 ft 6 kts 192°
2026-04-25 22:42 33.94790 -118.42284 134 ft 8 kts 172°
2026-04-25 22:42 33.94725 -118.42274 133 ft 10 kts 173°
2026-04-25 22:42 33.94680 -118.42230 133 ft 9 kts 91°
2026-04-25 22:43 33.94693 -118.42153 134 ft 10 kts 77°
2026-04-25 22:43 33.94704 -118.42059 134 ft 11 kts 84°
2026-04-25 22:43 33.94713 -118.41959 134 ft 13 kts 84°
2026-04-25 22:43 33.94723 -118.41846 133 ft 14 kts 84°
2026-04-25 22:44 33.94736 -118.41721 134 ft 15 kts 82°
2026-04-25 22:44 33.94751 -118.41585 134 ft 16 kts 83°
2026-04-25 22:44 33.94759 -118.41442 134 ft 16 kts 110°
2026-04-25 22:44 33.94657 -118.41380 134 ft 17 kts 171°
2026-04-25 22:45 33.94599 -118.41376 134 ft 3 kts 213°
2026-04-25 22:45 33.94582 -118.41412 134 ft 6 kts 256°
2026-04-25 22:45 33.94575 -118.41461 134 ft 3 kts 263°
2026-04-25 22:45 33.94573 -118.41475 134 ft 0 kts 263°
2026-04-25 22:46 33.94573 -118.41476 134 ft 0 kts 263°